Year,Month,Day,Hour,Minute,Value (Times are PST for temperature in C)
2021,07,04,00,00,18.60
2021,07,04,00,01,18.60
2021,07,04,00,02,18.60
2021,07,04,00,03,18.60
2021,07,04,00,04,18.60
2021,07,04,00,05,18.60
2021,07,04,00,06,18.60
2021,07,04,00,07,18.70
2021,07,04,00,08,18.70
2021,07,04,00,09,18.70
2021,07,04,00,10,18.70
2021,07,04,00,11,18.70
2021,07,04,00,12,18.70
2021,07,04,00,13,18.70
2021,07,04,00,14,18.70
2021,07,04,00,15,18.70
2021,07,04,00,16,18.70
2021,07,04,00,17,18.70
2021,07,04,00,18,18.80
2021,07,04,00,19,18.80
2021,07,04,00,20,18.80
2021,07,04,00,21,18.80
2021,07,04,00,22,18.80
2021,07,04,00,23,18.90
2021,07,04,00,24,18.90
2021,07,04,00,25,18.90
2021,07,04,00,26,18.90
2021,07,04,00,27,19.00
2021,07,04,00,28,19.00
2021,07,04,00,29,19.00
2021,07,04,00,30,19.00
2021,07,04,00,31,18.90
2021,07,04,00,32,18.90
2021,07,04,00,33,18.90
2021,07,04,00,34,18.90
2021,07,04,00,35,18.90
2021,07,04,00,36,18.90
2021,07,04,00,37,18.90
2021,07,04,00,38,18.80
2021,07,04,00,39,18.80
2021,07,04,00,40,18.80
2021,07,04,00,41,18.80
2021,07,04,00,42,18.70
2021,07,04,00,43,18.70
2021,07,04,00,44,18.70
2021,07,04,00,45,18.70
2021,07,04,00,46,18.70
2021,07,04,00,47,18.70
2021,07,04,00,48,18.70
2021,07,04,00,49,18.60
2021,07,04,00,50,18.60
2021,07,04,00,51,18.60
2021,07,04,00,52,18.60
2021,07,04,00,53,18.60
2021,07,04,00,54,18.50
2021,07,04,00,55,18.50
2021,07,04,00,56,18.40
2021,07,04,00,57,18.40
2021,07,04,00,58,18.40
2021,07,04,00,59,18.40
2021,07,04,01,00,18.30
2021,07,04,01,01,18.30
2021,07,04,01,02,18.30
2021,07,04,01,03,18.30
2021,07,04,01,04,18.20
2021,07,04,01,05,18.20
2021,07,04,01,06,18.20
2021,07,04,01,07,18.20
2021,07,04,01,08,18.20
2021,07,04,01,09,18.20
2021,07,04,01,10,18.10
2021,07,04,01,11,18.10
2021,07,04,01,12,18.10
2021,07,04,01,13,18.10
2021,07,04,01,14,18.00
2021,07,04,01,15,18.00
2021,07,04,01,16,18.00
2021,07,04,01,17,18.00
2021,07,04,01,18,17.90
2021,07,04,01,19,17.90
2021,07,04,01,20,17.90
2021,07,04,01,21,17.90
2021,07,04,01,22,17.90
2021,07,04,01,23,17.90
2021,07,04,01,24,17.90
2021,07,04,01,25,17.90
2021,07,04,01,26,17.90
2021,07,04,01,27,17.90
2021,07,04,01,28,17.90
2021,07,04,01,29,17.90
2021,07,04,01,30,17.90
2021,07,04,01,31,17.80
2021,07,04,01,32,17.80
2021,07,04,01,33,17.80
2021,07,04,01,34,17.80
2021,07,04,01,35,17.80
2021,07,04,01,36,17.80
2021,07,04,01,37,17.80
2021,07,04,01,38,17.80
2021,07,04,01,39,17.80
2021,07,04,01,40,17.80
2021,07,04,01,41,17.70
2021,07,04,01,42,17.70
2021,07,04,01,43,17.70
2021,07,04,01,44,17.70
2021,07,04,01,45,17.70
2021,07,04,01,46,17.70
2021,07,04,01,47,17.70
2021,07,04,01,48,17.70
2021,07,04,01,49,17.60
2021,07,04,01,50,17.60
2021,07,04,01,51,17.60
2021,07,04,01,52,17.60
2021,07,04,01,53,17.60
2021,07,04,01,54,17.50
2021,07,04,01,55,17.50
2021,07,04,01,56,17.50
2021,07,04,01,57,17.50
2021,07,04,01,58,17.40
2021,07,04,01,59,17.40
2021,07,04,02,00,17.40
2021,07,04,02,01,17.40
2021,07,04,02,02,17.40
2021,07,04,02,03,17.30
2021,07,04,02,04,17.30
2021,07,04,02,05,17.30
2021,07,04,02,06,17.30
2021,07,04,02,07,17.40
2021,07,04,02,08,17.40
2021,07,04,02,09,17.40
2021,07,04,02,10,17.40
2021,07,04,02,11,17.40
2021,07,04,02,12,17.40
2021,07,04,02,13,17.40
2021,07,04,02,14,17.50
2021,07,04,02,15,17.50
2021,07,04,02,16,17.50
2021,07,04,02,17,17.50
2021,07,04,02,18,17.50
2021,07,04,02,19,17.50
2021,07,04,02,20,17.50
2021,07,04,02,21,17.50
2021,07,04,02,22,17.50
2021,07,04,02,23,17.50
2021,07,04,02,24,17.50
2021,07,04,02,25,17.50
2021,07,04,02,26,17.50
2021,07,04,02,27,17.60
2021,07,04,02,28,17.60
2021,07,04,02,29,17.60
2021,07,04,02,30,17.60
2021,07,04,02,31,17.60
2021,07,04,02,32,17.60
2021,07,04,02,33,17.70
2021,07,04,02,34,17.70
2021,07,04,02,35,17.70
2021,07,04,02,36,17.70
2021,07,04,02,37,17.70
2021,07,04,02,38,17.70
2021,07,04,02,39,17.70
2021,07,04,02,40,17.70
2021,07,04,02,41,17.70
2021,07,04,02,42,17.70
2021,07,04,02,43,17.70
2021,07,04,02,44,17.70
2021,07,04,02,45,17.70
2021,07,04,02,46,17.70
2021,07,04,02,47,17.70
2021,07,04,02,48,17.60
2021,07,04,02,49,17.60
2021,07,04,02,50,17.60
2021,07,04,02,51,17.60
2021,07,04,02,52,17.60
2021,07,04,02,53,17.60
2021,07,04,02,54,17.60
2021,07,04,02,55,17.50
2021,07,04,02,56,17.50
2021,07,04,02,57,17.50
2021,07,04,02,58,17.50
2021,07,04,02,59,17.50
2021,07,04,03,00,17.50
2021,07,04,03,01,17.50
2021,07,04,03,02,17.50
2021,07,04,03,03,17.40
2021,07,04,03,04,17.40
2021,07,04,03,05,17.40
2021,07,04,03,06,17.40
2021,07,04,03,07,17.40
2021,07,04,03,08,17.40
2021,07,04,03,09,17.40
2021,07,04,03,10,17.40
2021,07,04,03,11,17.40
2021,07,04,03,12,17.40
2021,07,04,03,13,17.40
2021,07,04,03,14,17.40
2021,07,04,03,15,17.30
2021,07,04,03,16,17.30
2021,07,04,03,17,17.30
2021,07,04,03,18,17.30
2021,07,04,03,19,17.30
2021,07,04,03,20,17.30
2021,07,04,03,21,17.30
2021,07,04,03,22,17.30
2021,07,04,03,23,17.20
2021,07,04,03,24,17.20
2021,07,04,03,25,17.20
2021,07,04,03,26,17.20
2021,07,04,03,27,17.20
2021,07,04,03,28,17.20
2021,07,04,03,29,17.20
2021,07,04,03,30,17.20
2021,07,04,03,31,17.20
2021,07,04,03,32,17.20
2021,07,04,03,33,17.20
2021,07,04,03,34,17.10
2021,07,04,03,35,17.10
2021,07,04,03,36,17.10
2021,07,04,03,37,17.10
2021,07,04,03,38,17.10
2021,07,04,03,39,17.10
2021,07,04,03,40,17.10
2021,07,04,03,41,17.00
2021,07,04,03,42,17.00
2021,07,04,03,43,17.00
2021,07,04,03,44,17.00
2021,07,04,03,45,16.90
2021,07,04,03,46,16.90
2021,07,04,03,47,16.90
2021,07,04,03,48,16.90
2021,07,04,03,49,16.90
2021,07,04,03,50,16.90
2021,07,04,03,51,16.90
2021,07,04,03,52,16.90
2021,07,04,03,53,16.90
2021,07,04,03,54,16.90
2021,07,04,03,55,16.90
2021,07,04,03,56,16.90
2021,07,04,03,57,16.90
2021,07,04,03,58,16.90
2021,07,04,03,59,16.90
2021,07,04,04,00,16.90
2021,07,04,04,01,16.90
2021,07,04,04,02,16.90
2021,07,04,04,03,16.80
2021,07,04,04,04,16.80
2021,07,04,04,05,16.80
2021,07,04,04,06,16.80
2021,07,04,04,07,16.80
2021,07,04,04,08,16.80
2021,07,04,04,09,16.80
2021,07,04,04,10,16.70
2021,07,04,04,11,16.70
2021,07,04,04,12,16.70
2021,07,04,04,13,16.70
2021,07,04,04,14,16.70
2021,07,04,04,15,16.60
2021,07,04,04,16,16.60
2021,07,04,04,17,16.60
2021,07,04,04,18,16.60
2021,07,04,04,19,16.60
2021,07,04,04,20,16.60
2021,07,04,04,21,16.60
2021,07,04,04,22,16.50
2021,07,04,04,23,16.50
2021,07,04,04,24,16.50
2021,07,04,04,25,16.50
2021,07,04,04,26,16.50
2021,07,04,04,27,16.50
2021,07,04,04,28,16.50
2021,07,04,04,29,16.50
2021,07,04,04,30,16.50
2021,07,04,04,31,16.50
2021,07,04,04,32,16.40
2021,07,04,04,33,16.40
2021,07,04,04,34,16.40
2021,07,04,04,35,16.40
2021,07,04,04,36,16.40
2021,07,04,04,37,16.40
2021,07,04,04,38,16.40
2021,07,04,04,39,16.40
2021,07,04,04,40,16.40
2021,07,04,04,41,16.40
2021,07,04,04,42,16.40
2021,07,04,04,43,16.30
2021,07,04,04,44,16.30
2021,07,04,04,45,16.30
2021,07,04,04,46,16.30
2021,07,04,04,47,16.30
2021,07,04,04,48,16.30
2021,07,04,04,49,16.30
2021,07,04,04,50,16.30
2021,07,04,04,51,16.30
2021,07,04,04,52,16.30
2021,07,04,04,53,16.20
2021,07,04,04,54,16.30
2021,07,04,04,55,16.30
2021,07,04,04,56,16.30
2021,07,04,04,57,16.30
2021,07,04,04,58,16.30
2021,07,04,04,59,16.30
2021,07,04,05,00,16.30
2021,07,04,05,01,16.30
2021,07,04,05,02,16.30
2021,07,04,05,03,16.20
2021,07,04,05,04,16.20
2021,07,04,05,05,16.20
2021,07,04,05,06,16.20
2021,07,04,05,07,16.20
2021,07,04,05,08,16.20
2021,07,04,05,09,16.20
2021,07,04,05,10,16.20
2021,07,04,05,11,16.20
2021,07,04,05,12,16.20
2021,07,04,05,13,16.20
2021,07,04,05,14,16.20
2021,07,04,05,15,16.20
2021,07,04,05,16,16.20
2021,07,04,05,17,16.20
2021,07,04,05,18,16.10
2021,07,04,05,19,16.10
2021,07,04,05,20,16.10
2021,07,04,05,21,16.10
2021,07,04,05,22,16.20
2021,07,04,05,23,16.20
2021,07,04,05,24,16.20
2021,07,04,05,25,16.20
2021,07,04,05,26,16.20
2021,07,04,05,27,16.20
2021,07,04,05,28,16.20
2021,07,04,05,29,16.20
2021,07,04,05,30,16.20
2021,07,04,05,31,16.20
2021,07,04,05,32,16.20
2021,07,04,05,33,16.20
2021,07,04,05,34,16.20
2021,07,04,05,35,16.20
2021,07,04,05,36,16.20
2021,07,04,05,37,16.20
2021,07,04,05,38,16.20
2021,07,04,05,39,16.20
2021,07,04,05,40,16.20
2021,07,04,05,41,16.20
2021,07,04,05,42,16.20
2021,07,04,05,43,16.20
2021,07,04,05,44,16.20
2021,07,04,05,45,16.20
2021,07,04,05,46,16.20
2021,07,04,05,47,16.20
2021,07,04,05,48,16.20
2021,07,04,05,49,16.20
2021,07,04,05,50,16.10
2021,07,04,05,51,16.10
2021,07,04,05,52,16.10
2021,07,04,05,53,16.10
2021,07,04,05,54,16.10
2021,07,04,05,55,16.10
2021,07,04,05,56,16.10
2021,07,04,05,57,16.10
2021,07,04,05,58,16.10
2021,07,04,05,59,16.10
2021,07,04,06,00,16.10
2021,07,04,06,01,16.10
2021,07,04,06,02,16.10
2021,07,04,06,03,16.10
2021,07,04,06,04,16.10
2021,07,04,06,05,16.10
2021,07,04,06,06,16.10
2021,07,04,06,07,16.10
2021,07,04,06,08,16.10
2021,07,04,06,09,16.10
2021,07,04,06,10,16.10
2021,07,04,06,11,16.10
2021,07,04,06,12,16.10
2021,07,04,06,13,16.10
2021,07,04,06,14,16.10
2021,07,04,06,15,16.10
2021,07,04,06,16,16.10
2021,07,04,06,17,16.10
2021,07,04,06,18,16.10
2021,07,04,06,19,16.10
2021,07,04,06,20,16.10
2021,07,04,06,21,16.10
2021,07,04,06,22,16.10
2021,07,04,06,23,16.10
2021,07,04,06,24,16.10
2021,07,04,06,25,16.10
2021,07,04,06,26,16.10
2021,07,04,06,27,16.20
2021,07,04,06,28,16.30
2021,07,04,06,29,16.30
2021,07,04,06,30,16.30
2021,07,04,06,31,16.30
2021,07,04,06,32,16.30
2021,07,04,06,33,16.30
2021,07,04,06,34,16.30
2021,07,04,06,35,16.30
2021,07,04,06,36,16.30
2021,07,04,06,37,16.30
2021,07,04,06,38,16.30
2021,07,04,06,39,16.30
2021,07,04,06,40,16.30
2021,07,04,06,41,16.40
2021,07,04,06,42,16.40
2021,07,04,06,43,16.40
2021,07,04,06,44,16.40
2021,07,04,06,45,16.40
2021,07,04,06,46,16.40
2021,07,04,06,47,16.40
2021,07,04,06,48,16.40
2021,07,04,06,49,16.50
2021,07,04,06,50,16.50
2021,07,04,06,51,16.50
2021,07,04,06,52,16.50
2021,07,04,06,53,16.50
2021,07,04,06,54,16.50
2021,07,04,06,55,16.50
2021,07,04,06,56,16.60
2021,07,04,06,57,16.60
2021,07,04,06,58,16.60
2021,07,04,06,59,16.60
2021,07,04,07,00,16.60
2021,07,04,07,01,16.60
2021,07,04,07,02,16.60
2021,07,04,07,03,16.60
2021,07,04,07,04,16.60
2021,07,04,07,05,16.60
2021,07,04,07,06,16.60
2021,07,04,07,07,16.70
2021,07,04,07,08,16.70
2021,07,04,07,09,16.70
2021,07,04,07,10,16.70
2021,07,04,07,11,16.70
2021,07,04,07,12,16.70
2021,07,04,07,13,16.70
2021,07,04,07,14,16.80
2021,07,04,07,15,16.80
2021,07,04,07,16,16.80
2021,07,04,07,17,16.90
2021,07,04,07,18,16.90
2021,07,04,07,19,16.90
2021,07,04,07,20,16.90
2021,07,04,07,21,17.00
2021,07,04,07,22,17.00
2021,07,04,07,23,17.00
2021,07,04,07,24,17.10
2021,07,04,07,25,17.10
2021,07,04,07,26,17.10
2021,07,04,07,27,17.20
2021,07,04,07,28,17.20
2021,07,04,07,29,17.20
2021,07,04,07,30,17.20
2021,07,04,07,31,17.20
2021,07,04,07,32,17.30
2021,07,04,07,33,17.30
2021,07,04,07,34,17.30
2021,07,04,07,35,17.40
2021,07,04,07,36,17.40
2021,07,04,07,37,17.40
2021,07,04,07,38,17.40
2021,07,04,07,39,17.40
2021,07,04,07,40,17.50
2021,07,04,07,41,17.50
2021,07,04,07,42,17.60
2021,07,04,07,43,17.60
2021,07,04,07,44,17.60
2021,07,04,07,45,17.70
2021,07,04,07,46,17.70
2021,07,04,07,47,17.70
2021,07,04,07,48,17.70
2021,07,04,07,49,17.70
2021,07,04,07,50,17.80
2021,07,04,07,51,17.80
2021,07,04,07,52,17.80
2021,07,04,07,53,17.80
2021,07,04,07,54,17.80
2021,07,04,07,55,17.80
2021,07,04,07,56,17.80
2021,07,04,07,57,17.90
2021,07,04,07,58,17.90
2021,07,04,07,59,17.90
2021,07,04,08,00,17.90
2021,07,04,08,01,18.00
2021,07,04,08,02,18.00
2021,07,04,08,03,18.00
2021,07,04,08,04,18.00
2021,07,04,08,05,18.10
2021,07,04,08,06,18.10
2021,07,04,08,07,18.10
2021,07,04,08,08,18.10
2021,07,04,08,09,18.10
2021,07,04,08,10,18.10
2021,07,04,08,11,18.20
2021,07,04,08,12,18.20
2021,07,04,08,13,18.20
2021,07,04,08,14,18.20
2021,07,04,08,15,18.30
2021,07,04,08,16,18.30
2021,07,04,08,17,18.40
2021,07,04,08,18,18.50
2021,07,04,08,19,18.60
2021,07,04,08,20,18.60
2021,07,04,08,21,18.70
2021,07,04,08,22,18.80
2021,07,04,08,23,18.90
2021,07,04,08,24,18.90
2021,07,04,08,25,19.00
2021,07,04,08,26,19.10
2021,07,04,08,27,19.10
2021,07,04,08,28,19.20
2021,07,04,08,29,19.30
2021,07,04,08,30,19.40
2021,07,04,08,31,19.40
2021,07,04,08,32,19.50
2021,07,04,08,33,19.60
2021,07,04,08,34,19.70
2021,07,04,08,35,19.80
2021,07,04,08,36,19.80
2021,07,04,08,37,19.90
2021,07,04,08,38,19.90
2021,07,04,08,39,19.90
2021,07,04,08,40,20.00
2021,07,04,08,41,20.00
2021,07,04,08,42,20.10
2021,07,04,08,43,20.20
2021,07,04,08,44,20.30
2021,07,04,08,45,20.30
2021,07,04,08,46,20.30
2021,07,04,08,47,20.40
2021,07,04,08,48,20.40
2021,07,04,08,49,20.50
2021,07,04,08,50,20.50
2021,07,04,08,51,20.60
2021,07,04,08,52,20.60
2021,07,04,08,53,20.60
2021,07,04,08,54,20.60
2021,07,04,08,55,20.60
2021,07,04,08,56,20.70
2021,07,04,08,57,20.70
2021,07,04,08,58,20.70
2021,07,04,08,59,20.70
2021,07,04,09,00,20.80
2021,07,04,09,01,20.80
2021,07,04,09,02,20.80
2021,07,04,09,03,20.80
2021,07,04,09,04,20.80
2021,07,04,09,05,20.80
2021,07,04,09,06,20.70
2021,07,04,09,07,20.80
2021,07,04,09,08,20.80
2021,07,04,09,09,20.80
2021,07,04,09,10,20.90
2021,07,04,09,11,20.90
2021,07,04,09,12,20.90
2021,07,04,09,13,20.90
2021,07,04,09,14,20.90
2021,07,04,09,15,21.00
2021,07,04,09,16,21.00
2021,07,04,09,17,21.00
2021,07,04,09,18,21.00
2021,07,04,09,19,21.10
2021,07,04,09,20,21.10
2021,07,04,09,21,21.20
2021,07,04,09,22,21.20
2021,07,04,09,23,21.20
2021,07,04,09,24,21.30
2021,07,04,09,25,21.30
2021,07,04,09,26,21.30
2021,07,04,09,27,21.30
2021,07,04,09,28,21.30
2021,07,04,09,29,21.30
2021,07,04,09,30,21.30
2021,07,04,09,31,21.30
2021,07,04,09,32,21.30
2021,07,04,09,33,21.40
2021,07,04,09,34,21.40
2021,07,04,09,35,21.50
2021,07,04,09,36,21.50
2021,07,04,09,37,21.60
2021,07,04,09,38,21.70
2021,07,04,09,39,21.70
2021,07,04,09,40,21.70
2021,07,04,09,41,21.70
2021,07,04,09,42,21.80
2021,07,04,09,43,21.80
2021,07,04,09,44,21.80
2021,07,04,09,45,21.80
2021,07,04,09,46,21.80
2021,07,04,09,47,21.80
2021,07,04,09,48,21.90
2021,07,04,09,49,21.90
2021,07,04,09,50,22.00
2021,07,04,09,51,22.10
2021,07,04,09,52,22.20
2021,07,04,09,53,22.20
2021,07,04,09,54,22.30
2021,07,04,09,55,22.40
2021,07,04,09,56,22.50
2021,07,04,09,57,22.60
2021,07,04,09,58,22.60
2021,07,04,09,59,22.70
2021,07,04,10,00,22.70
2021,07,04,10,01,22.70
2021,07,04,10,02,22.70
2021,07,04,10,03,22.60
2021,07,04,10,04,22.50
2021,07,04,10,05,22.40
2021,07,04,10,06,22.30
2021,07,04,10,07,22.20
2021,07,04,10,08,22.20
2021,07,04,10,09,22.20
2021,07,04,10,10,22.20
2021,07,04,10,11,22.20
2021,07,04,10,12,22.20
2021,07,04,10,13,22.20
2021,07,04,10,14,22.20
2021,07,04,10,15,22.20
2021,07,04,10,16,22.20
2021,07,04,10,17,22.20
2021,07,04,10,18,22.20
2021,07,04,10,19,22.20
2021,07,04,10,20,22.20
2021,07,04,10,21,22.20
2021,07,04,10,22,22.20
2021,07,04,10,23,22.10
2021,07,04,10,24,22.10
2021,07,04,10,25,22.00
2021,07,04,10,26,22.00
2021,07,04,10,27,22.00
2021,07,04,10,28,22.00
2021,07,04,10,29,22.00
2021,07,04,10,30,22.00
2021,07,04,10,31,22.10
2021,07,04,10,32,22.10
2021,07,04,10,33,22.10
2021,07,04,10,34,22.10
2021,07,04,10,35,22.20
2021,07,04,10,36,22.30
2021,07,04,10,37,22.30
2021,07,04,10,38,22.40
2021,07,04,10,39,22.50
2021,07,04,10,40,22.50
2021,07,04,10,41,22.60
2021,07,04,10,42,22.60
2021,07,04,10,43,22.60
2021,07,04,10,44,22.60
2021,07,04,10,45,22.60
2021,07,04,10,46,22.50
2021,07,04,10,47,22.50
2021,07,04,10,48,22.50
2021,07,04,10,49,22.60
2021,07,04,10,50,22.60
2021,07,04,10,51,22.70
2021,07,04,10,52,22.70
2021,07,04,10,53,22.80
2021,07,04,10,54,22.80
2021,07,04,10,55,22.90
2021,07,04,10,56,22.90
2021,07,04,10,57,22.90
2021,07,04,10,58,22.90
2021,07,04,10,59,23.00
2021,07,04,11,00,23.00
2021,07,04,11,01,23.10
2021,07,04,11,02,23.10
2021,07,04,11,03,23.10
2021,07,04,11,04,23.00
2021,07,04,11,05,23.00
2021,07,04,11,06,22.90
2021,07,04,11,07,22.90
2021,07,04,11,08,22.90
2021,07,04,11,09,22.80
2021,07,04,11,10,22.80
2021,07,04,11,11,22.80
2021,07,04,11,12,22.70
2021,07,04,11,13,22.80
2021,07,04,11,14,22.80
2021,07,04,11,15,22.80
2021,07,04,11,16,22.80
2021,07,04,11,17,22.80
2021,07,04,11,18,22.80
2021,07,04,11,19,22.80
2021,07,04,11,20,22.80
2021,07,04,11,21,22.80
2021,07,04,11,22,22.80
2021,07,04,11,23,22.80
2021,07,04,11,24,22.90
2021,07,04,11,25,22.90
2021,07,04,11,26,22.90
2021,07,04,11,27,22.90
2021,07,04,11,28,22.90
2021,07,04,11,29,22.90
2021,07,04,11,30,22.90
2021,07,04,11,31,22.90
2021,07,04,11,32,22.90
2021,07,04,11,33,22.90
2021,07,04,11,34,23.00
2021,07,04,11,35,23.10
2021,07,04,11,36,23.10
2021,07,04,11,37,23.00
2021,07,04,11,38,23.00
2021,07,04,11,39,23.00
2021,07,04,11,40,23.00
2021,07,04,11,41,23.00
2021,07,04,11,42,23.10
2021,07,04,11,43,23.10
2021,07,04,11,44,23.10
2021,07,04,11,45,23.10
2021,07,04,11,46,23.20
2021,07,04,11,47,23.20
2021,07,04,11,48,23.20
2021,07,04,11,49,23.20
2021,07,04,11,50,23.20
2021,07,04,11,51,23.20
2021,07,04,11,52,23.20
2021,07,04,11,53,23.30
2021,07,04,11,54,23.30
2021,07,04,11,55,23.30
2021,07,04,11,56,23.30
2021,07,04,11,57,23.30
2021,07,04,11,58,23.30
2021,07,04,11,59,23.30
2021,07,04,12,00,23.40
2021,07,04,12,01,23.40
2021,07,04,12,02,23.40
2021,07,04,12,03,23.40
2021,07,04,12,04,23.40
2021,07,04,12,05,23.40
2021,07,04,12,06,23.40
2021,07,04,12,07,23.30
2021,07,04,12,08,23.30
2021,07,04,12,09,23.20
2021,07,04,12,10,23.20
2021,07,04,12,11,23.10
2021,07,04,12,12,23.10
2021,07,04,12,13,23.10
2021,07,04,12,14,23.10
2021,07,04,12,15,23.10
2021,07,04,12,16,23.10
2021,07,04,12,17,23.00
2021,07,04,12,18,23.10
2021,07,04,12,19,23.10
2021,07,04,12,20,23.20
2021,07,04,12,21,23.30
2021,07,04,12,22,23.40
2021,07,04,12,23,23.40
2021,07,04,12,24,23.50
2021,07,04,12,25,23.50
2021,07,04,12,26,23.60
2021,07,04,12,27,23.70
2021,07,04,12,28,23.80
2021,07,04,12,29,23.80
2021,07,04,12,30,23.80
2021,07,04,12,31,23.80
2021,07,04,12,32,23.70
2021,07,04,12,33,23.70
2021,07,04,12,34,23.60
2021,07,04,12,35,23.60
2021,07,04,12,36,23.70
2021,07,04,12,37,23.70
2021,07,04,12,38,23.70
2021,07,04,12,39,23.80
2021,07,04,12,40,23.80
2021,07,04,12,41,23.90
2021,07,04,12,42,23.90
2021,07,04,12,43,23.80
2021,07,04,12,44,23.80
2021,07,04,12,45,23.90
2021,07,04,12,46,23.90
2021,07,04,12,47,24.00
2021,07,04,12,48,24.10
2021,07,04,12,49,24.00
2021,07,04,12,50,24.00
2021,07,04,12,51,24.10
2021,07,04,12,52,24.00
2021,07,04,12,53,24.10
2021,07,04,12,54,24.00
2021,07,04,12,55,23.90
2021,07,04,12,56,23.90
2021,07,04,12,57,23.90
2021,07,04,12,58,23.80
2021,07,04,12,59,23.60
2021,07,04,13,00,23.60
2021,07,04,13,01,23.50
2021,07,04,13,02,23.40
2021,07,04,13,03,23.40
2021,07,04,13,04,23.40
2021,07,04,13,05,23.40
2021,07,04,13,06,23.40
2021,07,04,13,07,23.40
2021,07,04,13,08,23.30
2021,07,04,13,09,23.30
2021,07,04,13,10,23.30
2021,07,04,13,11,23.30
2021,07,04,13,12,23.20
2021,07,04,13,13,23.20
2021,07,04,13,14,23.20
2021,07,04,13,15,23.20
2021,07,04,13,16,23.30
2021,07,04,13,17,23.30
2021,07,04,13,18,23.40
2021,07,04,13,19,23.40
2021,07,04,13,20,23.40
2021,07,04,13,21,23.50
2021,07,04,13,22,23.50
2021,07,04,13,23,23.60
2021,07,04,13,24,23.60
2021,07,04,13,25,23.60
2021,07,04,13,26,23.60
2021,07,04,13,27,23.60
2021,07,04,13,28,23.60
2021,07,04,13,29,23.60
2021,07,04,13,30,23.70
2021,07,04,13,31,23.70
2021,07,04,13,32,23.70
2021,07,04,13,33,23.70
2021,07,04,13,34,23.70
2021,07,04,13,35,23.70
2021,07,04,13,36,23.70
2021,07,04,13,37,23.80
2021,07,04,13,38,23.90
2021,07,04,13,39,24.00
2021,07,04,13,40,24.10
2021,07,04,13,41,24.20
2021,07,04,13,42,24.30
2021,07,04,13,43,24.30
2021,07,04,13,44,24.40
2021,07,04,13,45,24.50
2021,07,04,13,46,24.50
2021,07,04,13,47,24.60
2021,07,04,13,48,24.60
2021,07,04,13,49,24.60
2021,07,04,13,50,24.60
2021,07,04,13,51,24.50
2021,07,04,13,52,24.50
2021,07,04,13,53,24.30
2021,07,04,13,54,24.30
2021,07,04,13,55,24.20
2021,07,04,13,56,24.10
2021,07,04,13,57,24.10
2021,07,04,13,58,24.10
2021,07,04,13,59,24.10
2021,07,04,14,00,24.10
2021,07,04,14,01,24.20
2021,07,04,14,02,24.30
2021,07,04,14,03,24.40
2021,07,04,14,04,24.40
2021,07,04,14,05,24.40
2021,07,04,14,06,24.30
2021,07,04,14,07,24.20
2021,07,04,14,08,24.10
2021,07,04,14,09,24.10
2021,07,04,14,10,24.00
2021,07,04,14,11,23.90
2021,07,04,14,12,23.80
2021,07,04,14,13,23.70
2021,07,04,14,14,23.60
2021,07,04,14,15,23.50
2021,07,04,14,16,23.40
2021,07,04,14,17,23.30
2021,07,04,14,18,23.20
2021,07,04,14,19,23.10
2021,07,04,14,20,23.00
2021,07,04,14,21,22.90
2021,07,04,14,22,22.90
2021,07,04,14,23,22.90
2021,07,04,14,24,23.00
2021,07,04,14,25,23.00
2021,07,04,14,26,23.10
2021,07,04,14,27,23.20
2021,07,04,14,28,23.30
2021,07,04,14,29,23.40
2021,07,04,14,30,23.40
2021,07,04,14,31,23.50
2021,07,04,14,32,23.60
2021,07,04,14,33,23.60
2021,07,04,14,34,23.70
2021,07,04,14,35,23.70
2021,07,04,14,36,23.70
2021,07,04,14,37,23.70
2021,07,04,14,38,23.70
2021,07,04,14,39,23.70
2021,07,04,14,40,23.80
2021,07,04,14,41,23.90
2021,07,04,14,42,24.00
2021,07,04,14,43,24.10
2021,07,04,14,44,24.20
2021,07,04,14,45,24.20
2021,07,04,14,46,24.30
2021,07,04,14,47,24.30
2021,07,04,14,48,24.40
2021,07,04,14,49,24.40
2021,07,04,14,50,24.50
2021,07,04,14,51,24.60
2021,07,04,14,52,24.60
2021,07,04,14,53,24.60
2021,07,04,14,54,24.60
2021,07,04,14,55,24.60
2021,07,04,14,56,24.50
2021,07,04,14,57,24.50
2021,07,04,14,58,24.40
2021,07,04,14,59,24.40
2021,07,04,15,00,24.40
2021,07,04,15,01,24.50
2021,07,04,15,02,24.60
2021,07,04,15,03,24.70
2021,07,04,15,04,24.80
2021,07,04,15,05,24.90
2021,07,04,15,06,25.00
2021,07,04,15,07,25.10
2021,07,04,15,08,25.20
2021,07,04,15,09,25.30
2021,07,04,15,10,25.30
2021,07,04,15,11,25.30
2021,07,04,15,12,25.30
2021,07,04,15,13,25.20
2021,07,04,15,14,25.10
2021,07,04,15,15,25.00
2021,07,04,15,16,25.00
2021,07,04,15,17,25.00
2021,07,04,15,18,25.00
2021,07,04,15,19,25.00
2021,07,04,15,20,24.90
2021,07,04,15,21,24.80
2021,07,04,15,22,24.70
2021,07,04,15,23,24.70
2021,07,04,15,24,24.60
2021,07,04,15,25,24.60
2021,07,04,15,26,24.50
2021,07,04,15,27,24.50
2021,07,04,15,28,24.40
2021,07,04,15,29,24.30
2021,07,04,15,30,24.20
2021,07,04,15,31,24.20
2021,07,04,15,32,24.10
2021,07,04,15,33,24.10
2021,07,04,15,34,24.10
2021,07,04,15,35,24.10
2021,07,04,15,36,24.10
2021,07,04,15,37,24.20
2021,07,04,15,38,24.30
2021,07,04,15,39,24.40
2021,07,04,15,40,24.50
2021,07,04,15,41,24.50
2021,07,04,15,42,24.60
2021,07,04,15,43,24.70
2021,07,04,15,44,24.80
2021,07,04,15,45,24.80
2021,07,04,15,46,24.90
2021,07,04,15,47,24.90
2021,07,04,15,48,25.00
2021,07,04,15,49,25.10
2021,07,04,15,50,25.20
2021,07,04,15,51,25.30
2021,07,04,15,52,25.30
2021,07,04,15,53,25.30
2021,07,04,15,54,25.30
2021,07,04,15,55,25.30
2021,07,04,15,56,25.30
2021,07,04,15,57,25.30
2021,07,04,15,58,25.30
2021,07,04,15,59,25.30
2021,07,04,16,00,25.30
2021,07,04,16,01,25.30
2021,07,04,16,02,25.30
2021,07,04,16,03,25.20
2021,07,04,16,04,25.10
2021,07,04,16,05,25.00
2021,07,04,16,06,25.00
2021,07,04,16,07,25.00
2021,07,04,16,08,25.00
2021,07,04,16,09,25.00
2021,07,04,16,10,25.10
2021,07,04,16,11,25.10
2021,07,04,16,12,25.20
2021,07,04,16,13,25.20
2021,07,04,16,14,25.20
2021,07,04,16,15,25.20
2021,07,04,16,16,25.30
2021,07,04,16,17,25.30
2021,07,04,16,18,25.40
2021,07,04,16,19,25.40
2021,07,04,16,20,25.30
2021,07,04,16,21,25.30
2021,07,04,16,22,25.30
2021,07,04,16,23,25.30
2021,07,04,16,24,25.30
2021,07,04,16,25,25.20
2021,07,04,16,26,25.20
2021,07,04,16,27,25.20
2021,07,04,16,28,25.10
2021,07,04,16,29,25.10
2021,07,04,16,30,25.10
2021,07,04,16,31,25.10
2021,07,04,16,32,25.10
2021,07,04,16,33,25.10
2021,07,04,16,34,25.00
2021,07,04,16,35,25.00
2021,07,04,16,36,25.00
2021,07,04,16,37,24.90
2021,07,04,16,38,24.90
2021,07,04,16,39,24.90
2021,07,04,16,40,24.90
2021,07,04,16,41,24.80
2021,07,04,16,42,24.90
2021,07,04,16,43,24.90
2021,07,04,16,44,24.90
2021,07,04,16,45,24.90
2021,07,04,16,46,24.90
2021,07,04,16,47,25.00
2021,07,04,16,48,25.00
2021,07,04,16,49,25.10
2021,07,04,16,50,25.10
2021,07,04,16,51,25.20
2021,07,04,16,52,25.30
2021,07,04,16,53,25.30
2021,07,04,16,54,25.40
2021,07,04,16,55,25.40
2021,07,04,16,56,25.50
2021,07,04,16,57,25.50
2021,07,04,16,58,25.50
2021,07,04,16,59,25.50
2021,07,04,17,00,25.50
2021,07,04,17,01,25.60
2021,07,04,17,02,25.60
2021,07,04,17,03,25.60
2021,07,04,17,04,25.60
2021,07,04,17,05,25.70
2021,07,04,17,06,25.70
2021,07,04,17,07,25.80
2021,07,04,17,08,25.80
2021,07,04,17,09,25.90
2021,07,04,17,10,25.90
2021,07,04,17,11,25.90
2021,07,04,17,12,25.90
2021,07,04,17,13,25.90
2021,07,04,17,14,25.90
2021,07,04,17,15,25.90
2021,07,04,17,16,25.90
2021,07,04,17,17,25.80
2021,07,04,17,18,25.80
2021,07,04,17,19,25.70